Indianapolis, IN

5:33 AM EST on November 22, 2019 (GMT -0500)
Indianapolis Terry

Weather History for KTYQ - June, 2019

Change the Weather History Date:

Wednesday, June 12, 2019

  Actual Average (KEYE) Record (KEYE)
Temperature  
Mean Temperature 62 °F -  
Max Temperature 74 °F 76 °F 91 °F (2016)
Min Temperature 51 °F 60 °F 55 °F (2006)
Degree Days  
Heating Degree Days 2    
Growing Degree Days 12 (Base 50)    
Moisture  
Dew Point 51 °F    
Average Humidity 70    
Maximum Humidity 100    
Minimum Humidity 36    
Precipitation  
Precipitation 0.00 in - - ()
Sea Level Pressure  
Sea Level Pressure 29.95 in    
Wind  
Wind Speed 3 mph ()    
Max Wind Speed 16 mph    
Max Gust Speed 28 mph    
Visibility 10.0 miles    
Events      
Averages and records for this station are not official NWS values.
T = Trace of Precipitation, MM = Missing Value Source: Averaged Metar Reports

Daily Weather History Graph

Daily Weather History Graph

Search for Another Location

Airport or City:

Astronomy

Jun. 12, 2019 Rise Set
Actual Time 6:15 AM EDT 9:14 PM EDT
Civil Twilight 5:42 AM EDT 9:47 PM EDT
Nautical Twilight 5:01 AM EDT 10:28 PM EDT
Astronomical Twilight 4:13 AM EDT 11:17 PM EDT
Moon 4:21 PM EDT (6/12) 3:29 AM EDT (6/12)
Length of Visible Light 16h 04m
Length of Day
14h 58m
Waxing Gibbous, 76% of the Moon is Illuminated
Jun 12
Waxing Gibbous
Jun 17
Full
Jun 25
Last Quarter
Jul 2
New
Jul 9
First Quarter

Hourly Weather History & Observations

Time (EDT) Temp. Dew Point Humidity Pressure Visibility Wind Dir Wind Speed Gust Speed Precip Events Conditions
12:15 AM 57.7 °F 55.0 °F 91% 30.11 in 10.0 mi Calm Calm - N/A   Clear
12:35 AM 57.2 °F 55.8 °F 95% 30.11 in 10.0 mi Calm Calm - N/A   Clear
12:55 AM 56.8 °F 55.9 °F 97% 30.11 in 10.0 mi Calm Calm - N/A   Clear
1:15 AM 57.0 °F 56.1 °F 97% 30.10 in 10.0 mi Calm Calm - N/A   Clear
1:35 AM 54.5 °F 54.1 °F 99% 30.10 in 10.0 mi Calm Calm - N/A   Clear
1:55 AM 54.5 °F 53.6 °F 97% 30.09 in 10.0 mi Calm Calm - N/A   Clear
2:15 AM 54.0 °F 53.8 °F 99% 30.08 in 10.0 mi Calm Calm - N/A   Clear
2:35 AM 54.5 °F 54.0 °F 98% 30.08 in 10.0 mi Calm Calm - N/A   Clear
2:55 AM 54.1 °F 54.1 °F 100% 30.08 in 10.0 mi Calm Calm - N/A   Clear
3:15 AM 53.4 °F 53.4 °F 100% 30.08 in 10.0 mi Calm Calm - N/A   Clear
3:35 AM 52.0 °F 52.0 °F 100% 30.08 in 10.0 mi Calm Calm - N/A   Clear
3:55 AM 52.5 °F 52.5 °F 100% 30.07 in 10.0 mi Calm Calm - N/A   Clear
4:15 AM 52.2 °F 52.2 °F 100% 30.07 in 10.0 mi Calm Calm - N/A   Clear
4:35 AM 51.8 °F 51.8 °F 100% 30.06 in 10.0 mi Calm Calm - N/A   Clear
4:55 AM 52.0 °F 52.0 °F 100% 30.06 in 10.0 mi Calm Calm - N/A   Clear
5:15 AM 52.0 °F 52.0 °F 100% 30.06 in 10.0 mi Calm Calm - N/A   Clear
5:35 AM 51.8 °F 51.8 °F 100% 30.06 in 10.0 mi Calm Calm - N/A   Clear
5:55 AM 51.8 °F 51.8 °F 100% 30.06 in 10.0 mi Calm Calm - N/A   Clear
6:15 AM 51.6 °F 51.6 °F 100% 30.06 in 10.0 mi Calm Calm - N/A   Clear
6:35 AM 52.2 °F 52.2 °F 100% 30.06 in 10.0 mi Calm Calm - N/A   Clear
6:55 AM 52.3 °F 52.3 °F 100% 30.06 in 10.0 mi Calm Calm - N/A   Clear
7:15 AM 54.0 °F 54.0 °F 100% 30.06 in 10.0 mi Calm Calm - N/A   Clear
7:35 AM 55.4 °F 54.3 °F 96% 30.05 in 10.0 mi Calm Calm - N/A   Clear
7:55 AM 57.4 °F 54.7 °F 91% 30.04 in 10.0 mi ESE 3.5 mph - N/A   Clear
8:15 AM 59.7 °F 54.3 °F 82% 30.03 in 10.0 mi ESE 4.6 mph - N/A   Clear
8:35 AM 61.3 °F 54.0 °F 77% 30.04 in 10.0 mi Calm Calm - N/A   Clear
8:55 AM 62.6 °F 52.0 °F 68% 30.03 in 10.0 mi Calm Calm - N/A   Clear
9:15 AM 64.4 °F 52.7 °F 66% 30.03 in 10.0 mi Calm Calm - N/A   Clear
9:35 AM 65.8 °F 51.3 °F 59% 30.03 in 10.0 mi SSE 4.6 mph - N/A   Clear
9:55 AM 67.1 °F 51.1 °F 56% 30.02 in 10.0 mi Calm Calm - N/A   Clear
10:15 AM 68.7 °F 50.2 °F 52% 30.00 in 10.0 mi SSE 5.8 mph - N/A   Clear
10:35 AM 69.6 °F 49.1 °F 48% 29.99 in 10.0 mi SSE 4.6 mph - N/A   Clear
10:55 AM 70.7 °F 49.3 °F 47% 29.99 in 10.0 mi SSE 8.1 mph 18.4 mph N/A   Clear
11:15 AM 70.2 °F 48.6 °F 46% 29.97 in 10.0 mi SSE 6.9 mph - N/A   Clear
11:35 AM 71.8 °F 48.2 °F 43% 29.97 in 10.0 mi SSE 10.4 mph - N/A   Clear
11:55 AM 72.5 °F 48.7 °F 43% 29.96 in 10.0 mi SE 11.5 mph - N/A   Clear
12:15 PM 71.1 °F 48.0 °F 44% 29.95 in 10.0 mi ESE 6.9 mph - N/A   Clear
12:35 PM 72.1 °F 48.7 °F 43% 29.94 in 10.0 mi SE 4.6 mph - N/A   Clear
12:55 PM 71.4 °F 48.0 °F 43% 29.94 in 10.0 mi South 4.6 mph - N/A   Clear
1:15 PM 72.1 °F 48.7 °F 43% 29.93 in 10.0 mi SW 8.1 mph - N/A   Clear
1:35 PM 73.2 °F 49.6 °F 43% 29.92 in 10.0 mi SE 9.2 mph - N/A   Scattered Clouds
1:55 PM 73.8 °F 49.3 °F 42% 29.91 in 10.0 mi ESE 8.1 mph - N/A   Scattered Clouds
2:35 PM 73.9 °F 48.7 °F 41% 29.90 in 10.0 mi SE 6.9 mph - N/A   Scattered Clouds
2:55 PM 73.2 °F 48.9 °F 42% 29.89 in 10.0 mi SSE 8.1 mph - N/A   Mostly Cloudy
3:15 PM 73.2 °F 48.4 °F 41% 29.88 in 10.0 mi SE 3.5 mph - N/A   Mostly Cloudy
3:35 PM 74.5 °F 49.1 °F 41% 29.87 in 10.0 mi WSW 6.9 mph - N/A   Scattered Clouds
3:55 PM 73.2 °F 47.7 °F 40% 29.86 in 10.0 mi South 3.5 mph - N/A   Clear
4:15 PM 74.8 °F 48.7 °F 40% 29.85 in 10.0 mi South 5.8 mph - N/A   Scattered Clouds
4:35 PM 73.6 °F 47.7 °F 40% 29.84 in 10.0 mi SW 3.5 mph - N/A   Clear
4:55 PM 73.4 °F 45.0 °F 36% 29.84 in 10.0 mi WSW 4.6 mph - N/A   Clear
5:15 PM 73.0 °F 45.9 °F 38% 29.84 in 10.0 mi SW 6.9 mph - N/A   Clear
5:35 PM 72.5 °F 46.9 °F 40% 29.83 in 10.0 mi WSW 3.5 mph - N/A   Clear
5:55 PM 72.5 °F 47.1 °F 40% 29.83 in 10.0 mi SSW 5.8 mph - N/A   Scattered Clouds
6:15 PM 71.4 °F 49.8 °F 46% 29.82 in 10.0 mi South 6.9 mph - N/A   Mostly Cloudy
6:35 PM 69.8 °F 50.9 °F 51% 29.82 in 10.0 mi WNW 6.9 mph - N/A   Mostly Cloudy
6:55 PM 69.4 °F 51.6 °F 53% 29.82 in 10.0 mi West 8.1 mph - N/A   Scattered Clouds
7:15 PM 68.5 °F 50.9 °F 53% 29.83 in 10.0 mi WSW 6.9 mph - N/A   Clear
7:35 PM 68.0 °F 50.4 °F 53% 29.83 in 10.0 mi West 4.6 mph - N/A   Scattered Clouds
7:55 PM 68.4 °F 44.6 °F 42% 29.81 in 10.0 mi NW 8.1 mph 24.2 mph N/A   Mostly Cloudy
8:15 PM 67.3 °F 51.4 °F 57% 29.80 in 10.0 mi West 4.6 mph - N/A   Scattered Clouds
8:35 PM 66.4 °F 53.1 °F 62% 29.80 in 10.0 mi West 4.6 mph - N/A   Clear
8:55 PM 66.2 °F 52.5 °F 61% 29.79 in 10.0 mi Calm Calm - N/A   Clear
9:15 PM 64.8 °F 55.4 °F 72% 29.80 in 10.0 mi SSW 3.5 mph - N/A   Clear
9:35 PM 63.9 °F 56.3 °F 76% 29.80 in 10.0 mi SSW 3.5 mph - N/A   Mostly Cloudy
9:55 PM 63.1 °F 51.6 °F 66% 29.82 in 10.0 mi West 16.1 mph 27.6 mph N/A   Overcast
10:15 PM 61.2 °F 50.9 °F 69% 29.82 in 10.0 mi WNW 13.8 mph 25.3 mph N/A   Overcast
10:35 PM 59.5 °F 52.9 °F 79% 29.84 in 10.0 mi West 9.2 mph 18.4 mph N/A   Overcast
10:55 PM 58.8 °F 52.9 °F 81% 29.85 in 10.0 mi WNW 10.4 mph 19.6 mph N/A   Overcast
11:15 PM 57.4 °F 53.6 °F 87% 29.83 in 10.0 mi WNW 8.1 mph - N/A   Overcast
11:35 PM 57.0 °F 54.1 °F 90% 29.83 in 10.0 mi West 8.1 mph - N/A   Light Drizzle
11:55 PM 56.3 °F 54.5 °F 94% 29.82 in 10.0 mi WNW 8.1 mph - N/A   Light Drizzle